Location: Elstree
(51.6403°N, 0.2969°W)
Time: 14:44:11
(UTC+00:00)

Cosmos 1354 Rocket - Pass Details

Date: 19 June 2021
Orbit: 764 x 783 km, 74.0° (Epoch: 25 July)

Event Time Altitude Azimuth Distance (km) Brightness Sun altitude
Rises 00:36:01 0° 322° (NW) 3,284 8.0 -14.6°
Reaches altitude 10° 00:39:29 10° 299° (WNW) 2,349 6.8 -14.5°
Maximum altitude 00:42:15 14° 267° (W) 2,050 6.1 -14.4°
Enters shadow 00:44:59 10° 236° (SW) 2,334 6.1 -14.4°
